Location: Lesignano de� Bagni
(44.6500°N, 10.3000°E)
Time: 16:39:01
(UTC+00:00)

Cosmos 1461 - Pass Details

Date: 03 March 2021
Orbit: 505 x 659 km, 65.0° (Epoch: 18 April)

Event Time Altitude Azimuth Distance (km) Brightness Sun altitude
Rises 17:27:47 0° 218° (SW) 2,951 7.3 -4.1°
Reaches altitude 10° 17:30:04 10° 220° (SW) 2,056 6.5 -4.5°
Maximum altitude 17:34:45 74° 306° (NW) 688 3.5 -5.3°
Drops below altitude 10° 17:39:30 10° 32° (NNE) 2,078 5.4 -6.2°
Sets 17:41:49 0° 34° (NE) 2,985 6.2 -6.6°
